Terug naar catalogus

DELTA 1 DEB *

ActiefLEO
NORAD 10519·DEBRIS·🇺🇸 United States

Gelanceerd Dec 15, 1977 vanaf Cape Canaveral Space Force Station

Loading…

Volgende Passages (komende 24 uur)

TLE

VersSource: Space-Track

Epoch: Sep 14, 2026, 00:02 UTC

1 10519U 77118C   26257.00151994  .00000324  00000-0  67042-4 0  9993
2 10519  29.0565 244.0798 0811314 171.5633 189.9511 13.30756784348129

Volg DELTA 1 DEB * in realtime met AllMySat

Download on the App Store